FW5122 Weather Reports


time (UTC)temp
C
wind
direction
speed
KPH
gust
KPH
rain 1hr
cm
rain 24hr
cm
rain mn
cm
humidity
%
barometer
mb
20260506001930 25 10 0.0 19.3 0.00 0.00 0.56 71 1006.0
20260506000530 27 13 0.0 22.5 0.00 0.00 0.46 64 1006.0
20260505235831 28 5 3.2 22.5 0.00 0.00 0.05 62 1005.3
20260505235133 29 86 17.7 22.5 0.00 0.00 0.00 65 1004.7
20260505234433 29 19 3.2 22.5 0.00 0.00 0.00 64 1005.0
20260505232333 30 25 12.9 22.5 0.00 0.00 0.00 62 1005.0
20260505231633 30 352 12.9 22.5 0.00 0.00 0.00 61 1004.7
20260505230933 31 24 17.7 22.5 0.00 0.00 0.00 61 1004.7
20260505230233 31 55 8.0 16.1 0.00 0.00 0.00 60 1004.7
20260505225533 31 32 12.9 16.1 0.00 0.00 0.00 60 1004.3
20260505224833 31 0 12.9 16.1 0.00 0.00 0.00 59 1004.7
20260505224133 31 18 12.9 12.9 0.00 0.00 0.00 59 1004.3
20260505223433 31 15 0.0 12.9 0.00 0.00 0.00 57 1004.3
20260505222733 32 10 8.0 12.9 0.00 0.00 0.00 57 1004.3
20260505222033 32 5 8.0 12.9 0.00 0.00 0.00 56 1004.3
20260505221333 32 1 8.0 12.9 0.00 0.00 0.00 56 1004.3
20260505220633 32 11 0.0 12.9 0.00 0.00 0.00 55 1004.3
20260505215933 32 26 3.2 12.9 0.00 0.00 0.00 55 1004.3
20260505215233 32 20 12.9 12.9 0.00 0.00 0.00 54 1004.3
20260505214533 32 8 8.0 16.1 0.00 0.00 0.00 54 1004.3
20260505213833 32 6 3.2 16.1 0.00 0.00 0.00 54 1004.3
20260505213133 32 13 3.2 16.1 0.00 0.00 0.00 54 1004.7
20260505212433 33 46 8.0 16.1 0.00 0.00 0.00 54 1004.7
20260505211033 32 7 8.0 27.4 0.00 0.00 0.00 55 1004.7
20260505210333 32 346 8.0 27.4 0.00 0.00 0.00 55 1004.7
20260505205634 32 355 3.2 27.4 0.00 0.00 0.00 56 1005.0
20260505204933 32 31 8.0 27.4 0.00 0.00 0.00 55 1005.0
20260505203533 32 3 3.2 27.4 0.00 0.00 0.00 55 1005.0
20260505202833 32 3 8.0 27.4 0.00 0.00 0.00 57 1005.3
20260505202133 32 8 8.0 27.4 0.00 0.00 0.00 57 1005.3
20260505201433 32 27 8.0 27.4 0.00 0.00 0.00 59 1005.3
20260505200033 31 9 0.0 27.4 0.00 0.00 0.00 59 1005.7
20260505195333 31 58 8.0 27.4 0.00 0.00 0.00 60 1005.7
20260505194633 31 18 8.0 27.4 0.00 0.00 0.00 62 1005.3
20260505193933 31 69 8.0 27.4 0.00 0.00 0.00 62 1005.7
20260505193232 31 294 8.0 27.4 0.00 0.00 0.00 62 1005.7
20260505192533 31 6 8.0 27.4 0.00 0.00 0.00 63 1005.7
20260505191833 30 6 8.0 27.4 0.00 0.00 0.00 63 1005.7
20260505191132 30 8 8.0 27.4 0.00 0.00 0.00 64 1005.3
20260505190433 30 98 17.7 27.4 0.00 0.00 0.00 64 1005.7
20260505185732 30 4 12.9 22.5 0.00 0.00 0.00 65 1006.0
20260505185033 29 17 8.0 22.5 0.00 0.00 0.00 66 1006.0
20260505184333 28 12 3.2 22.5 0.00 0.00 0.00 66 1006.0
20260505183632 28 13 8.0 22.5 0.00 0.00 0.00 66 1006.0
20260505182933 28 106 17.7 22.5 0.00 0.00 0.00 66 1006.0
20260505182232 28 9 0.0 22.5 0.00 0.00 0.00 67 1006.0
20260505181532 28 16 8.0 22.5 0.00 0.00 0.00 67 1006.0
20260505180833 28 10 8.0 22.5 0.00 0.00 0.00 67 1006.0
20260505180133 28 13 0.0 22.5 0.00 0.00 0.00 67 1006.3
20260505175433 28 331 8.0 22.5 0.00 0.00 0.00 67 1006.3
20260505174732 28 332 22.5 22.5 0.00 0.00 0.00 67 1006.0
20260505174033 28 80 12.9 22.5 0.00 0.00 0.00 67 1006.3
20260505173332 28 30 8.0 22.5 0.00 0.00 0.00 68 1006.0
20260505172632 28 3 8.0 22.5 0.00 0.00 0.00 67 1006.0
20260505171932 28 24 3.2 19.3 0.00 0.00 0.00 67 1006.3
20260505171232 28 11 3.2 19.3 0.00 0.00 0.00 68 1006.3
20260505170533 28 356 12.9 19.3 0.00 0.00 0.00 68 1006.0
20260505165833 28 39 8.0 30.6 0.00 0.00 0.00 69 1006.3
20260505165133 27 10 8.0 30.6 0.00 0.00 0.00 70 1006.3
20260505164433 27 29 8.0 30.6 0.00 0.00 0.00 70 1006.3
20260505163733 27 358 12.9 30.6 0.00 0.00 0.00 70 1006.3
20260505163033 27 73 8.0 30.6 0.00 0.00 0.00 70 1006.0
20260505160932 27 358 12.9 22.5 0.00 0.00 0.00 71 1006.0
20260505152733 26 358 12.9 22.5 0.00 0.00 0.00 74 1006.0
20260505152032 25 355 12.9 22.5 0.00 0.00 0.00 75 1006.3
20260505151333 25 0 8.0 22.5 0.00 0.00 0.00 75 1006.0
20260505150634 25 74 12.9 22.5 0.00 0.00 0.00 75 1006.3
20260505140332 23 39 8.0 16.1 0.00 0.00 0.00 79 1006.3
20260505124832 22 0 8.0 27.4 0.00 0.00 0.00 80 1005.7
20260505124132 21 354 12.9 27.4 0.00 0.00 0.00 80 1005.7
20260505122733 21 13 3.2 27.4 0.00 0.00 0.00 80 1005.0
20260505122032 21 15 8.0 27.4 0.00 0.00 0.00 81 1005.0
20260505121333 21 16 3.2 27.4 0.00 0.00 0.00 80 1005.3
20260505120632 21 8 3.2 27.4 0.00 0.00 0.00 80 1005.3
20260505115232 21 340 12.9 27.4 0.00 0.00 0.00 80 1005.0
20260505114532 21 18 27.4 27.4 0.00 0.00 0.00 80 1005.0
20260505113831 21 355 3.2 27.4 0.00 0.00 0.00 80 1005.0
20260505113132 21 3 8.0 22.5 0.00 0.00 0.00 80 1005.0
20260505112432 21 26 8.0 22.5 0.00 0.00 0.00 80 1005.0
20260505111732 21 24 3.2 22.5 0.00 0.00 0.00 80 1005.0
20260505111032 21 9 8.0 22.5 0.00 0.00 0.00 80 1005.0
20260505110332 21 13 12.9 22.5 0.00 0.00 0.00 79 1005.0
20260505101432 21 52 8.0 30.6 0.00 0.00 0.00 79 1005.0
20260505100732 21 12 8.0 30.6 0.00 0.00 0.00 78 1005.3
20260505100032 21 6 8.0 30.6 0.00 0.00 0.00 78 1005.3
20260505095332 21 31 8.0 19.3 0.00 0.00 0.00 78 1005.0
20260505094632 21 8 3.2 19.3 0.00 0.00 0.00 78 1005.3
20260505093932 21 348 3.2 27.4 0.00 0.00 0.00 78 1005.3
20260505093232 21 36 8.0 27.4 0.00 0.00 0.00 78 1005.3
20260505091132 21 17 3.2 27.4 0.00 0.00 0.00 78 1005.7
20260505090432 21 40 8.0 27.4 0.00 0.00 0.00 78 1005.3
20260505085731 21 42 8.0 27.4 0.00 0.00 0.00 78 1005.3
20260505085031 21 14 0.0 27.4 0.00 0.00 0.00 78 1005.3
20260505084331 21 22 12.9 22.5 0.00 0.00 0.00 77 1005.7
20260505082931 21 34 8.0 22.5 0.00 0.00 0.00 78 1005.3
20260505082231 21 35 3.2 22.5 0.00 0.00 0.00 77 1005.7
20260505081531 21 43 8.0 22.5 0.00 0.00 0.00 77 1005.7
20260505080831 21 59 8.0 22.5 0.00 0.00 0.00 77 1005.7
20260505080132 21 24 3.2 22.5 0.00 0.00 0.00 77 1005.3
20260505074731 21 342 12.9 22.5 0.00 0.00 0.00 76 1006.0
20260505073331 22 11 8.0 16.1 0.00 0.00 0.00 75 1006.0
20260505072631 22 0 8.0 16.1 0.00 0.00 0.00 75 1006.3
20260505071932 22 6 8.0 16.1 0.00 0.00 0.00 75 1006.3
20260505071231 22 18 8.0 16.1 0.00 0.00 0.00 75 1006.3
20260505070531 22 18 3.2 16.1 0.00 0.00 0.00 74 1006.7
20260505065831 22 340 17.7 16.1 0.00 0.00 0.00 74 1006.3
20260505065131 22 44 12.9 16.1 0.00 0.00 0.00 74 1006.7
20260505063731 22 10 3.2 16.1 0.00 0.00 0.00 73 1007.0
20260505063031 22 32 8.0 22.5 0.00 0.00 0.00 73 1007.0
20260505062331 22 344 22.5 22.5 0.00 0.00 0.00 72 1007.0
20260505061631 22 2 8.0 22.5 0.00 0.00 0.00 72 1007.0
20260505060934 22 353 3.2 22.5 0.00 0.00 0.00 72 1007.0
20260505060231 22 79 22.5 22.5 0.00 0.00 0.00 72 1007.0
20260505055531 22 13 8.0 22.5 0.00 0.00 0.00 72 1007.0
20260505054832 22 351 3.2 22.5 0.00 0.00 0.00 71 1007.0
20260505054131 22 336 12.9 22.5 0.00 0.00 0.00 71 1007.0
20260505053431 22 27 22.5 22.5 0.00 0.00 0.00 71 1007.0
20260505052732 22 10 3.2 22.5 0.00 0.00 0.00 71 1007.0
20260505052031 22 32 3.2 22.5 0.00 0.00 0.00 71 1007.0
20260505050631 22 7 12.9 22.5 0.00 0.00 0.00 70 1007.0
20260505041731 22 9 8.0 16.1 0.00 0.00 0.00 68 1007.4
20260505041031 23 21 3.2 16.1 0.00 0.00 0.00 68 1007.4
20260505040333 23 1 3.2 16.1 0.00 0.00 0.00 68 1007.4
20260505035631 23 23 8.0 19.3 0.00 0.00 0.00 68 1007.4
20260505034931 23 63 12.9 19.3 0.00 0.00 0.00 67 1007.4
20260505034231 23 38 12.9 19.3 0.00 0.00 0.00 67 1007.0
20260505033531 23 53 22.5 19.3 0.00 0.00 0.00 67 1007.0
20260505032831 23 5 8.0 19.3 0.00 0.00 0.00 66 1007.4
20260505032131 23 359 8.0 19.3 0.00 0.00 0.00 66 1007.4
20260505031431 23 29 8.0 19.3 0.00 0.00 0.00 66 1007.4
20260505030731 23 14 8.0 19.3 0.00 0.00 0.00 66 1007.7
20260505030031 23 42 8.0 16.1 0.00 0.00 0.00 66 1007.7
20260505025331 23 354 8.0 16.1 0.00 0.00 0.00 65 1007.4
20260505024631 23 50 3.2 16.1 0.00 0.00 0.00 65 1007.7
20260505023932 23 72 17.7 16.1 0.00 0.00 0.00 65 1007.4
20260505023231 23 23 17.7 16.1 0.00 0.00 0.00 65 1007.4
20260505022531 23 67 12.9 16.1 0.00 0.00 0.00 65 1007.0
20260505021832 23 30 8.0 16.1 0.00 0.00 0.00 64 1007.0
20260505020432 23 10 3.2 16.1 0.00 0.00 0.00 63 1007.0
20260505015732 23 19 8.0 16.1 0.00 0.00 0.00 63 1007.0
20260505015031 24 13 3.2 16.1 0.00 0.00 0.00 63 1007.0
20260505013630 24 34 0.0 16.1 0.00 0.00 0.00 62 1007.4
20260505012931 24 35 3.2 19.3 0.00 0.00 0.00 62 1007.4
20260505011531 25 11 8.0 30.6 0.00 0.00 0.00 61 1007.0
20260505010831 25 56 12.9 30.6 0.00 0.00 0.00 61 1007.0
20260505005431 25 5 0.0 30.6 0.00 0.00 0.00 60 1007.0
20260505004730 25 346 12.9 30.6 0.00 0.00 0.00 60 1007.0
20260505004030 25 30 12.9 30.6 0.00 0.00 0.00 60 1007.0